K4DNM Weather Reports


Display with metric or nautical units.
time (UTC)temp
F
wind
direction
speed
MPH
gust
MPH
rain 1hr
in
rain 24hr
in
rain mn
in
humidity
%
barometer
mb
20260903072156 75 188 0.0 2.0 0.00 0.00 0.00 94 1015.2
20260903072037 75 188 0.0 2.0 0.00 0.00 0.00 94 1015.2
20260903071646 74 0 0.0 0.0 0.00 0.00 0.00 94 1015.2
20260903071528 74 0 0.0 0.0 0.00 0.00 0.00 94 1015.2
20260903070906 75 0 0.0 0.0 0.00 0.00 0.00 94 1015.1
20260903070351 75 0 0.0 1.0 0.00 0.00 0.00 94 1015.2
20260903065840 75 163 0.0 2.0 0.00 0.00 0.00 94 1015.2
20260903065320 74 0 1.0 2.0 0.00 0.00 0.00 94 1015.2
20260903064804 74 0 0.0 2.0 0.00 0.00 0.00 94 1015.2
20260903064254 74 260 0.0 0.0 0.00 0.00 0.00 93 1015.2
20260903063735 74 0 0.0 0.0 0.00 0.00 0.00 93 1015.3
20260903063220 74 0 0.0 1.0 0.00 0.00 0.00 93 1015.2
20260903062710 74 0 0.0 1.0 0.00 0.00 0.00 93 1015.2
20260903062150 74 0 0.0 0.0 0.00 0.00 0.00 93 1015.3
20260903062121 74 0 0.0 0.0 0.00 0.00 0.00 93 1015.3
20260903061740 74 0 0.0 0.0 0.00 0.00 0.00 93 1015.3
20260903061147 74 0 0.0 0.0 0.00 0.00 0.00 93 1015.4
20260903060624 74 0 0.0 1.0 0.00 0.00 0.00 93 1015.4
20260903060121 74 0 0.0 1.0 0.00 0.00 0.00 93 1015.5
20260903055622 75 0 0.0 1.0 0.00 0.00 0.00 93 1015.4
20260903055117 75 183 0.0 1.0 0.00 0.00 0.00 93 1015.5
20260903054627 75 0 0.0 0.0 0.00 0.00 0.00 93 1015.6
20260903054114 75 0 0.0 0.0 0.00 0.00 0.00 93 1015.7
20260903053612 75 0 0.0 0.0 0.00 0.00 0.00 92 1015.6
20260903053111 75 0 0.0 2.0 0.00 0.00 0.00 92 1015.6
20260903052608 75 0 0.0 2.0 0.00 0.00 0.00 92 1015.6
20260903052108 75 137 0.0 1.0 0.00 0.00 0.00 92 1015.5
20260903051606 75 0 0.0 1.0 0.00 0.00 0.00 92 1015.7
20260903051107 75 0 0.0 1.0 0.00 0.00 0.00 92 1015.7
20260903050605 75 0 0.0 1.0 0.00 0.00 0.00 92 1015.7
20260903050114 75 0 0.0 0.0 0.00 0.00 0.00 91 1015.7
20260903045602 75 0 0.0 1.0 0.00 0.00 0.00 91 1015.7
20260903045103 75 0 0.0 1.0 0.00 0.00 0.00 91 1015.7
20260903044600 75 0 0.0 0.0 0.00 0.00 0.00 91 1015.6
20260903044058 75 0 0.0 2.0 0.00 0.00 0.00 91 1015.7
20260903043556 76 155 0.0 2.0 0.00 0.00 0.00 91 1015.7
20260903043321 76 0 0.0 1.0 0.00 0.00 0.00 91 1015.7
20260903043200 76 0 0.0 1.0 0.00 0.00 0.00 91 1015.7
20260903042818 76 0 0.0 1.0 0.00 0.00 0.00 91 1015.7
20260903042658 76 0 0.0 1.0 0.00 0.00 0.00 91 1015.7
20260903042319 76 0 0.0 0.0 0.00 0.00 0.00 91 1015.8
20260903042200 76 0 0.0 0.0 0.00 0.00 0.00 91 1015.8
20260903041550 76 0 0.0 1.0 0.00 0.00 0.00 90 1015.7
20260903041050 76 0 0.0 1.0 0.00 0.00 0.00 90 1015.7
20260903040811 76 0 0.0 1.0 0.00 0.00 0.00 90 1015.9
20260903040654 76 0 0.0 1.0 0.00 0.00 0.00 90 1015.9
20260903040059 76 0 0.0 1.0 0.00 0.00 0.00 90 1015.9
20260903035548 76 0 0.0 1.0 0.00 0.00 0.00 90 1015.8
20260903035044 76 194 0.0 1.0 0.00 0.00 0.00 90 1015.7
20260903034540 76 0 0.0 0.0 0.00 0.00 0.00 89 1015.7
20260903034039 76 0 0.0 0.0 0.00 0.00 0.00 89 1015.7
20260903033537 76 0 0.0 0.0 0.00 0.00 0.00 89 1015.7
20260903033039 76 0 0.0 1.0 0.00 0.00 0.00 90 1015.8
20260903032758 76 0 0.0 1.0 0.00 0.00 0.00 90 1015.9
20260903032640 76 0 0.0 1.0 0.00 0.00 0.00 90 1015.9
20260903032034 76 0 0.0 1.0 0.00 0.00 0.00 89 1015.9
20260903031531 77 0 0.0 1.0 0.00 0.00 0.00 89 1015.8
20260903031032 77 170 0.0 1.0 0.00 0.00 0.00 89 1015.9
20260903030528 77 0 0.0 1.0 0.00 0.00 0.00 88 1015.9
20260903030027 77 0 0.0 2.0 0.00 0.00 0.00 89 1015.8
20260903025525 77 142 0.0 2.0 0.00 0.00 0.00 89 1015.9
20260903025024 77 106 0.0 2.0 0.00 0.00 0.00 87 1015.9
20260903024749 77 0 0.0 2.0 0.00 0.00 0.00 88 1015.9
20260903024627 77 0 0.0 2.0 0.00 0.00 0.00 88 1015.9
20260903024021 78 0 0.0 2.0 0.00 0.00 0.00 88 1016.0
20260903023520 78 0 0.0 2.0 0.00 0.00 0.00 86 1016.1
20260903023248 78 0 0.0 1.0 0.00 0.00 0.00 86 1016.1
20260903023123 78 0 0.0 1.0 0.00 0.00 0.00 86 1016.1
20260903022518 78 0 0.0 2.0 0.00 0.00 0.00 86 1016.1
20260903022232 78 0 0.0 2.0 0.00 0.00 0.00 86 1016.1
20260903022119 78 0 0.0 2.0 0.00 0.00 0.00 86 1016.1
20260903021732 79 124 0.0 2.0 0.00 0.00 0.00 84 1016.1
20260903021618 79 124 0.0 2.0 0.00 0.00 0.00 84 1016.1
20260903021507 79 187 0.0 1.0 0.00 0.00 0.00 83 1016.0
20260903021116 79 187 0.0 1.0 0.00 0.00 0.00 83 1016.0
20260903020525 79 0 0.0 4.0 0.00 0.00 0.00 83 1016.1
20260903020230 79 0 1.0 4.0 0.00 0.00 0.00 82 1016.1
20260903020113 79 0 1.0 4.0 0.00 0.00 0.00 82 1016.1
20260903015506 80 97 1.0 4.0 0.00 0.00 0.00 83 1016.2
20260903015008 80 147 0.0 2.0 0.00 0.00 0.00 79 1016.0
20260903014505 81 0 0.0 1.0 0.00 0.00 0.00 79 1015.8
20260903014006 81 231 0.0 1.0 0.00 0.00 0.00 78 1015.8
20260903013506 81 0 0.0 1.0 0.00 0.00 0.00 78 1015.9
20260903013004 82 0 0.0 2.0 0.00 0.00 0.00 77 1015.4
20260903012504 82 0 2.0 7.0 0.00 0.00 0.00 77 1015.2
20260903012000 82 239 3.0 7.0 0.00 0.00 0.00 76 1015.2
20260903011500 83 147 2.0 6.0 0.00 0.00 0.00 75 1015.2
20260903011222 83 200 1.0 4.0 0.00 0.00 0.00 73 1015.6
20260903011102 83 200 1.0 4.0 0.00 0.00 0.00 73 1015.6
20260903010456 83 185 2.0 6.0 0.00 0.00 0.00 72 1015.9
20260903005954 83 95 3.0 9.0 0.00 0.00 0.00 72 1016.5
20260903005457 84 53 4.0 9.0 0.00 0.00 0.00 71 1016.7
20260903004952 84 94 3.0 9.0 0.00 0.00 0.00 71 1017.0
20260903004449 84 29 2.0 5.0 0.00 0.00 0.00 71 1016.9
20260903003950 84 24 1.0 4.0 0.00 0.00 0.00 75 1016.8
20260903003854 84 0 0.0 2.0 0.00 0.00 0.00 75 1016.2
20260903003824 85 113 1.0 3.0 0.00 0.00 0.00 73 1015.5
20260903003819 86 0 0.0 1.0 0.00 0.00 0.00 66 1015.0
20260903003740 84 0 0.0 2.0 0.00 0.00 0.00 75 1016.2
20260903003538 84 21 1.0 3.0 0.00 0.00 0.00 73 1015.9
20260903003446 85 113 1.0 3.0 0.00 0.00 0.00 73 1015.5
20260903003245 86 100 0.0 3.0 0.00 0.00 0.00 70 1015.2
20260903001443 86 0 0.0 1.0 0.00 0.00 0.00 66 1015.0
20260903000939 87 0 1.0 5.0 0.00 0.00 0.00 66 1015.2
20260903000439 87 0 2.0 5.0 0.00 0.00 0.00 65 1015.3
20260902235936 87 128 2.0 6.0 0.00 0.00 0.00 65 1015.4
20260902235659 87 0 2.0 6.0 0.00 0.00 0.00 67 1015.4
20260902235540 87 0 2.0 6.0 0.00 0.00 0.00 67 1015.4
20260902234929 88 80 2.0 5.0 0.00 0.00 0.00 69 1015.3
20260902234427 88 98 1.0 4.0 0.00 0.00 0.00 71 1015.3
20260902234147 89 113 0.0 2.0 0.00 0.00 0.00 70 1015.1
20260902234030 89 113 0.0 2.0 0.00 0.00 0.00 70 1015.1
20260902233422 89 0 0.0 4.0 0.00 0.00 0.00 69 1015.1
20260902232923 89 0 1.0 4.0 0.00 0.00 0.00 68 1015.1
20260902232420 89 31 1.0 3.0 0.00 0.00 0.00 70 1015.2
20260902231919 89 86 0.0 3.0 0.00 0.00 0.00 73 1015.2
20260902231430 89 0 0.0 1.0 0.00 0.00 0.00 73 1015.3
20260902231142 90 0 0.0 1.0 0.00 0.00 0.00 71 1015.2
20260902231023 90 0 0.0 1.0 0.00 0.00 0.00 71 1015.2
20260902230417 90 0 0.0 1.0 0.00 0.00 0.00 70 1015.2
20260902225912 90 312 0.0 1.0 0.00 0.00 0.00 69 1015.1
20260902225411 90 0 0.0 1.0 0.00 0.00 0.00 68 1015.1
20260902224912 91 294 0.0 1.0 0.00 0.00 0.00 64 1015.1
20260902224411 91 0 0.0 0.0 0.00 0.00 0.00 65 1015.0
20260902223910 91 0 0.0 1.0 0.00 0.00 0.00 65 1015.0
20260902223408 92 0 0.0 1.0 0.00 0.00 0.00 65 1015.0
20260902222918 92 0 0.0 0.0 0.00 0.00 0.00 63 1015.0
20260902222406 92 0 0.0 0.0 0.00 0.00 0.00 61 1015.0
20260902222123 93 0 0.0 0.0 0.00 0.00 0.00 61 1015.0
20260902222008 93 0 0.0 0.0 0.00 0.00 0.00 61 1015.0
20260902221404 94 0 0.0 0.0 0.00 0.00 0.00 59 1015.0
20260902221348 94 0 0.0 0.0 0.00 0.00 0.00 58 1014.9
20260902221006 94 0 0.0 0.0 0.00 0.00 0.00 58 1014.9
20260902220617 95 270 0.0 0.0 0.00 0.00 0.00 57 1015.0
20260902220504 95 270 0.0 0.0 0.00 0.00 0.00 57 1015.0
20260902215858 96 0 0.0 1.0 0.00 0.00 0.00 56 1015.0
20260902215356 96 0 0.0 1.0 0.00 0.00 0.00 55 1014.9
20260902214855 97 251 0.0 1.0 0.00 0.00 0.00 53 1014.9
20260902214353 97 0 0.0 1.0 0.00 0.00 0.00 53 1014.9
20260902213852 97 0 0.0 1.0 0.00 0.00 0.00 53 1014.8
20260902213351 98 0 0.0 1.0 0.00 0.00 0.00 53 1014.8
20260902212850 98 0 0.0 1.0 0.00 0.00 0.00 51 1014.9
20260902212612 98 0 0.0 2.0 0.00 0.00 0.00 51 1014.8
20260902212452 98 0 0.0 2.0 0.00 0.00 0.00 51 1014.8
20260902211846 98 0 1.0 3.0 0.00 0.00 0.00 48 1014.8
20260902211343 98 0 1.0 3.0 0.00 0.00 0.00 48 1014.8
20260902210841 99 0 1.0 3.0 0.00 0.00 0.00 49 1014.8
20260902210341 100 243 1.0 3.0 0.00 0.00 0.00 46 1014.8
20260902205837 100 206 1.0 3.0 0.00 0.00 0.00 46 1014.8
20260902205341 101 0 1.0 3.0 0.00 0.00 0.00 45 1014.9
20260902205057 101 227 0.0 3.0 0.00 0.00 0.00 45 1014.9
20260902204940 101 227 0.0 3.0 0.00 0.00 0.00 45 1014.9
20260902204334 100 331 0.0 2.0 0.00 0.00 0.00 45 1014.9
20260902203833 99 0 1.0 3.0 0.00 0.00 0.00 47 1015.0
20260902203333 99 231 1.0 3.0 0.00 0.00 0.00 46 1015.0
20260902202830 98 186 1.0 4.0 0.00 0.00 0.00 47 1015.1
20260902202331 99 162 1.0 4.0 0.00 0.00 0.00 48 1015.1
20260902201827 99 193 1.0 3.0 0.00 0.00 0.00 47 1015.2
20260902201326 99 0 1.0 3.0 0.00 0.00 0.00 47 1015.1
20260902200824 99 164 1.0 3.0 0.00 0.00 0.00 47 1015.2
20260902200322 98 0 1.0 3.0 0.00 0.00 0.00 48 1015.3
20260902195820 99 178 1.0 5.0 0.00 0.00 0.00 48 1015.3
20260902195320 99 216 1.0 5.0 0.00 0.00 0.00 50 1015.4
20260902194815 100 215 1.0 4.0 0.00 0.00 0.00 48 1015.4
20260902194311 100 306 1.0 2.0 0.00 0.00 0.00 53 1015.5
20260902193811 100 352 1.0 2.0 0.00 0.00 0.00 50 1015.5
20260902193310 100 330 1.0 2.0 0.00 0.00 0.00 51 1015.6
20260902192811 99 275 1.0 2.0 0.00 0.00 0.00 51 1015.6
20260902192307 99 352 1.0 2.0 0.00 0.00 0.00 52 1015.7
20260902191806 98 0 1.0 3.0 0.00 0.00 0.00 47 1015.7
20260902191620 98 274 1.0 3.0 0.00 0.00 0.00 53 1015.9
20260902191550 98 226 1.0 4.0 0.00 0.00 0.00 51 1015.8
20260902191534 98 296 1.0 4.0 0.00 0.00 0.00 52 1015.8
20260902191450 98 236 1.0 3.0 0.00 0.00 0.00 52 1015.9
20260902191419 98 258 1.0 3.0 0.00 0.00 0.00 53 1015.9
20260902191303 98 296 1.0 4.0 0.00 0.00 0.00 52 1015.8
20260902190802 98 226 1.0 4.0 0.00 0.00 0.00 51 1015.8
20260902190543 98 274 1.0 3.0 0.00 0.00 0.00 53 1015.9
20260902185759 98 236 1.0 3.0 0.00 0.00 0.00 52 1015.9
20260902185528 98 258 1.0 3.0 0.00 0.00 0.00 53 1015.9
20260902184757 97 352 1.0 4.0 0.00 0.00 0.00 50 1015.9
20260902184525 97 193 2.0 6.0 0.00 0.00 0.00 50 1015.9
20260902184400 97 193 2.0 6.0 0.00 0.00 0.00 50 1015.9
20260902183752 98 172 2.0 6.0 0.00 0.00 0.00 49 1016.0
20260902183251 99 193 1.0 4.0 0.00 0.00 0.00 49 1016.0
20260902182749 98 233 1.0 2.0 0.00 0.00 0.00 49 1016.0
20260902182250 98 307 1.0 4.0 0.00 0.00 0.00 49 1016.0
20260902181750 98 329 1.0 4.0 0.00 0.00 0.00 54 1016.0
20260902181244 99 141 1.0 3.0 0.00 0.00 0.00 58 1016.0
20260902180745 99 311 1.0 3.0 0.00 0.00 0.00 55 1016.1
20260902180240 99 0 1.0 3.0 0.00 0.00 0.00 51 1016.1
20260902175740 98 241 0.0 2.0 0.00 0.00 0.00 52 1016.1
20260902175238 98 356 1.0 3.0 0.00 0.00 0.00 50 1016.2
20260902174738 97 350 1.0 3.0 0.00 0.00 0.00 56 1016.2
20260902174234 96 310 1.0 4.0 0.00 0.00 0.00 51 1016.2
20260902173734 97 140 1.0 4.0 0.00 0.00 0.00 50 1016.2
20260902173232 96 165 2.0 4.0 0.00 0.00 0.00 51 1016.2
20260902172731 96 224 2.0 4.0 0.00 0.00 0.00 51 1016.3
20260902172230 96 92 2.0 5.0 0.00 0.00 0.00 51 1016.4
20260902172046 97 120 1.0 3.0 0.00 0.00 0.00 52 1016.4
20260902172042 97 69 1.0 3.0 0.00 0.00 0.00 50 1016.5
20260902172036 97 228 1.0 3.0 0.00 0.00 0.00 51 1016.6
20260902171958 97 87 1.0 5.0 0.00 0.00 0.00 51 1016.4
20260902171901 97 120 1.0 3.0 0.00 0.00 0.00 52 1016.4
20260902171658 97 0 1.0 3.0 0.00 0.00 0.00 52 1016.5
20260902171602 97 69 1.0 3.0 0.00 0.00 0.00 50 1016.5
20260902165725 97 228 1.0 3.0 0.00 0.00 0.00 51 1016.6
20260902165221 98 252 1.0 2.0 0.00 0.00 0.00 54 1016.6
20260902165205 97 280 1.0 2.0 0.00 0.00 0.00 51 1016.6
20260902164823 97 280 1.0 2.0 0.00 0.00 0.00 51 1016.6
20260902164218 97 36 1.0 4.0 0.00 0.00 0.00 52 1016.7
20260902163717 96 342 1.0 4.0 0.00 0.00 0.00 53 1016.7
20260902163218 97 39 1.0 3.0 0.00 0.00 0.00 54 1016.8
20260902162715 97 321 1.0 2.0 0.00 0.00 0.00 54 1016.7
20260902162216 97 320 1.0 2.0 0.00 0.00 0.00 53 1016.7
20260902161712 97 1 1.0 2.0 0.00 0.00 0.00 52 1016.8
20260902161214 95 350 1.0 2.0 0.00 0.00 0.00 54 1016.8
20260902160937 94 21 1.0 4.0 0.00 0.00 0.00 57 1016.8
20260902160819 94 21 1.0 4.0 0.00 0.00 0.00 57 1016.8
20260902160210 93 210 2.0 5.0 0.00 0.00 0.00 57 1016.8
20260902155707 93 86 2.0 5.0 0.00 0.00 0.00 57 1016.9
20260902155206 94 99 1.0 5.0 0.00 0.00 0.00 57 1016.9
20260902154706 94 0 1.0 2.0 0.00 0.00 0.00 56 1016.9
20260902154203 94 342 1.0 3.0 0.00 0.00 0.00 58 1016.9
20260902153700 94 118 1.0 4.0 0.00 0.00 0.00 56 1016.9
20260902153159 93 339 1.0 4.0 0.00 0.00 0.00 61 1016.9
20260902152658 93 124 1.0 4.0 0.00 0.00 0.00 62 1016.9
20260902152156 93 126 2.0 7.0 0.00 0.00 0.00 59 1016.9
20260902151656 92 0 2.0 7.0 0.00 0.00 0.00 61 1016.9
20260902151153 92 106 2.0 6.0 0.00 0.00 0.00 59 1016.9
20260902150919 92 7 2.0 6.0 0.00 0.00 0.00 61 1016.9
20260902150756 92 7 2.0 6.0 0.00 0.00 0.00 61 1016.9
20260902150150 93 127 1.0 5.0 0.00 0.00 0.00 61 1016.9
20260902150138 93 292 1.0 3.0 0.00 0.00 0.00 60 1016.8
20260902145751 93 292 1.0 3.0 0.00 0.00 0.00 60 1016.8
20260902145149 93 11 1.0 3.0 0.00 0.00 0.00 61 1016.8
20260902144648 93 0 1.0 3.0 0.00 0.00 0.00 60 1016.8
20260902144147 93 331 1.0 2.0 0.00 0.00 0.00 59 1016.8
20260902143648 92 5 1.0 3.0 0.00 0.00 0.00 60 1016.7
20260902143146 92 7 1.0 3.0 0.00 0.00 0.00 62 1016.8
20260902142646 92 50 1.0 4.0 0.00 0.00 0.00 62 1016.8
20260902142142 92 346 1.0 5.0 0.00 0.00 0.00 60 1016.7
20260902141644 93 355 1.0 5.0 0.00 0.00 0.00 63 1016.7
20260902141358 93 0 0.0 3.0 0.00 0.00 0.00 62 1016.6
20260902141243 93 0 0.0 3.0 0.00 0.00 0.00 62 1016.6
20260902140636 92 0 0.0 3.0 0.00 0.00 0.00 67 1016.7
20260902140133 92 0 0.0 2.0 0.00 0.00 0.00 67 1016.7
20260902135632 91 0 1.0 3.0 0.00 0.00 0.00 67 1016.7
20260902135128 91 0 1.0 3.0 0.00 0.00 0.00 66 1016.7
20260902134624 92 211 1.0 3.0 0.00 0.00 0.00 66 1016.7
20260902134343 92 348 1.0 2.0 0.00 0.00 0.00 66 1016.7
20260902134229 92 348 1.0 2.0 0.00 0.00 0.00 66 1016.7
20260902133622 92 17 0.0 2.0 0.00 0.00 0.00 67 1016.8
20260902133121 91 359 0.0 2.0 0.00 0.00 0.00 67 1016.7
20260902132622 90 0 0.0 2.0 0.00 0.00 0.00 68 1016.7
20260902132121 90 0 0.0 2.0 0.00 0.00 0.00 69 1016.7
20260902131618 89 0 0.0 1.0 0.00 0.00 0.00 70 1016.7
20260902131121 89 0 0.0 2.0 0.00 0.00 0.00 72 1016.7
20260902130614 88 0 0.0 2.0 0.00 0.00 0.00 73 1016.7
20260902130340 87 0 0.0 2.0 0.00 0.00 0.00 75 1016.8
20260902130221 87 0 0.0 2.0 0.00 0.00 0.00 75 1016.8
20260902125835 87 346 0.0 2.0 0.00 0.00 0.00 75 1016.8
20260902125717 87 346 0.0 2.0 0.00 0.00 0.00 75 1016.8
20260902125336 85 0 0.0 2.0 0.00 0.00 0.00 78 1016.8
20260902125218 85 0 0.0 2.0 0.00 0.00 0.00 78 1016.8
20260902124611 85 309 0.0 2.0 0.00 0.00 0.00 77 1016.8
20260902124109 85 0 0.0 2.0 0.00 0.00 0.00 78 1016.8
20260902123829 84 0 0.0 2.0 0.00 0.00 0.00 80 1016.8
20260902123711 84 0 0.0 2.0 0.00 0.00 0.00 80 1016.8
20260902123106 84 0 0.0 2.0 0.00 0.00 0.00 81 1016.7
20260902122604 83 0 0.0 2.0 0.00 0.00 0.00 81 1016.7
20260902122104 83 0 0.0 2.0 0.00 0.00 0.00 82 1016.7
20260902121601 82 0 0.0 1.0 0.00 0.00 0.00 84 1016.7
20260902121058 81 0 0.0 1.0 0.00 0.00 0.00 86 1016.7
20260902120556 80 0 0.0 1.0 0.00 0.00 0.00 91 1016.7
20260902120107 79 0 0.0 1.0 0.00 0.00 0.00 93 1016.7
20260902115553 78 0 0.0 1.0 0.00 0.00 0.00 95 1016.6
20260902115052 77 0 0.0 1.0 0.00 0.00 0.00 95 1016.6
20260902114543 77 0 0.0 0.0 0.00 0.00 0.00 96 1016.7
20260902114026 76 0 0.0 1.0 0.00 0.00 0.00 96 1016.7
20260902113524 75 0 0.0 2.0 0.00 0.00 0.00 96 1016.7
20260902113015 75 0 1.0 2.0 0.00 0.00 0.00 96 1016.7
20260902112457 75 183 1.0 2.0 0.00 0.00 0.00 96 1016.7
20260902111953 75 115 1.0 2.0 0.00 0.00 0.00 96 1016.7
20260902111713 74 176 1.0 2.0 0.00 0.00 0.00 96 1016.7
20260902111559 74 176 1.0 2.0 0.00 0.00 0.00 96 1016.7
20260902110955 74 0 0.0 1.0 0.00 0.00 0.00 97 1016.6
20260902110444 74 0 0.0 2.0 0.00 0.00 0.00 96 1016.5
20260902105926 74 0 1.0 2.0 0.00 0.00 0.00 97 1016.6
20260902105413 74 169 0.0 2.0 0.00 0.00 0.00 96 1016.6
20260902104857 74 0 0.0 0.0 0.00 0.00 0.00 96 1016.6
20260902104353 74 0 0.0 0.0 0.00 0.00 0.00 96 1016.5
20260902103853 74 0 0.0 0.0 0.00 0.00 0.00 96 1016.5
20260902103359 74 0 0.0 0.0 0.00 0.00 0.00 96 1016.6
20260902102853 74 0 0.0 1.0 0.00 0.00 0.00 96 1016.5
20260902102342 74 0 0.0 1.0 0.00 0.00 0.00 96 1016.5
20260902101831 74 0 0.0 0.0 0.00 0.00 0.00 96 1016.5
20260902101530 74 0 0.0 0.0 0.00 0.00 0.00 96 1016.5
20260902101416 74 0 0.0 0.0 0.00 0.00 0.00 96 1016.5
20260902100756 74 0 0.0 0.0 0.00 0.00 0.00 96 1016.5
20260902100245 74 0 0.0 0.0 0.00 0.00 0.00 96 1016.4
20260902095949 74 0 0.0 0.0 0.00 0.00 0.00 96 1016.4
20260902095830 74 0 0.0 0.0 0.00 0.00 0.00 96 1016.4
20260902095228 74 0 0.0 0.0 0.00 0.00 0.00 96 1016.4
20260902094716 74 0 0.0 0.0 0.00 0.00 0.00 96 1016.3
20260902094158 74 0 0.0 0.0 0.00 0.00 0.00 96 1016.2
20260902093656 74 0 0.0 0.0 0.00 0.00 0.00 96 1016.1
20260902093156 74 0 0.0 0.0 0.00 0.00 0.00 96 1016.1
20260902092656 74 0 0.0 1.0 0.00 0.00 0.00 96 1016.0
20260902092144 74 0 0.0 1.0 0.00 0.00 0.00 96 1016.0
20260902091627 74 0 0.0 1.0 0.00 0.00 0.00 96 1016.0
20260902091115 74 0 0.0 1.0 0.00 0.00 0.00 96 1016.0
20260902090611 74 0 0.0 1.0 0.00 0.00 0.00 96 1016.0
20260902090118 74 0 0.0 0.0 0.00 0.00 0.00 95 1015.9
20260902085556 74 0 0.0 0.0 0.00 0.00 0.00 95 1016.0
20260902085101 74 0 0.0 1.0 0.00 0.00 0.00 95 1016.0
20260902084557 74 0 0.0 1.0 0.00 0.00 0.00 95 1016.0
20260902084055 74 179 0.0 1.0 0.00 0.00 0.00 95 1016.0
20260902083555 74 0 0.0 1.0 0.00 0.00 0.00 95 1016.1
20260902083045 75 0 0.0 1.0 0.00 0.00 0.00 95 1016.0
20260902082531 75 0 0.0 1.0 0.00 0.00 0.00 95 1016.0
20260902082027 75 0 0.0 1.0 0.00 0.00 0.00 95 1016.1
20260902081459 75 183 0.0 1.0 0.00 0.00 0.00 95 1016.0
20260902080944 75 0 0.0 0.0 0.00 0.00 0.00 95 1016.0
20260902080432 75 0 0.0 0.0 0.00 0.00 0.00 95 1016.0
20260902075915 75 0 0.0 0.0 0.00 0.00 0.00 95 1016.0
20260902075359 75 0 0.0 0.0 0.00 0.00 0.00 95 1016.1
20260902074846 75 0 0.0 0.0 0.00 0.00 0.00 95 1016.1
20260902074606 75 0 0.0 0.0 0.00 0.00 0.00 94 1016.1
20260902074448 75 0 0.0 0.0 0.00 0.00 0.00 94 1016.1
20260902073834 75 0 0.0 1.0 0.00 0.00 0.00 94 1016.1
20260902073317 75 0 0.0 1.0 0.00 0.00 0.00 94 1016.1
20260902072800 76 0 0.0 0.0 0.00 0.00 0.00 94 1016.1
20260902072259 76 0 0.0 0.0 0.00 0.00 0.00 94 1016.1